Wind_Speed
7 6 6 5 4 5 7 6 6 5 5 5 4 5 5 4 3 1 1 3 4 6 7 9 9 10 10 11 11 12 12 11 10 9 8 7 6 4 3 2 1 1 1 2 3 5 5 6 7
7 5 5 4 5 7 7 7 6 5 4 4 4 5 5 5 3 2 2 3 4 5 6 7 8 9 9 9 10 11 11 11 10 9 8 7 6 5 3 2 2 1 0 1 2 3 4 6 7
5 4 5 3 7 7 7 7 6 6 5 4 4 4 5 5 4 3 3 3 4 4 5 5 6 7 7 8 8 9 9 10 10 9 8 7 6 5 4 3 2 2 1 1 2 2 3 4 6
5 4 4 7 7 6 6 6 6 5 4 4 4 4 4 4 4 3 3 4 4 4 4 4 4 5 5 6 6 7 7 8 8 8 8 7 7 6 5 4 3 3 2 2 2 2 3 3 4
5 4 5 7 5 4 5 4 3 3 3 3 3 4 4 4 4 3 3 4 4 4 3 3 2 2 3 3 4 5 5 6 7 7 7 6 6 6 5 5 4 4 3 3 2 2 3 3 4
4 4 5 3 3 2 2 1 1 1 1 2 2 3 3 4 3 3 3 3 4 4 3 2 2 1 0 1 2 2 3 4 4 5 5 5 5 5 5 5 5 4 4 4 3 3 3 3 4
4 5 5 4 3 2 2 2 2 2 1 1 2 2 2 2 3 3 2 2 3 2 2 1 2 2 3 2 2 2 2 2 2 3 3 4 4 4 4 5 5 5 4 4 4 3 3 3 4
6 6 6 5 6 5 4 5 4 4 3 3 3 2 2 2 2 2 1 0 1 1 0 1 2 3 4 5 5 5 5 4 4 4 4 4 4 4 5 5 5 5 5 4 4 4 4 4 5
8 8 7 8 9 7 8 8 7 7 7 7 6 5 4 4 3 3 3 3 2 2 2 3 4 5 6 6 7 8 8 8 7 7 6 6 5 5 6 6 6 6 5 5 4 4 4 5 5
11 10 9 10 12 11 11 11 10 11 11 11 9 8 7 6 6 6 6 6 5 5 5 5 6 6 7 8 9 10 10 10 10 10 9 8 8 8 8 8 7 7 6 6 5 5 5 6 6
13 13 12 13 14 14 15 15 15 15 15 14 13 12 11 10 10 9 9 9 9 8 8 8 8 8 9 9 10 11 12 12 12 12 12 11 11 10 10 10 9 8 8 7 7 7 7 7 7
15 15 16 17 16 17 18 19 19 18 17 17 17 16 16 15 14 13 13 12 12 11 11 11 10 10 11 11 12 13 14 14 14 14 14 14 13 13 12 12 11 10 10 9 8 8 8 8 8
17 17 17 18 18 20 21 22 22 20 20 20 20 20 21 20 19 18 17 16 15 14 13 13 13 13 13 14 15 15 16 16 16 17 16 16 16 15 15 14 13 12 12 11 10 10 10 9 9
17 17 18 20 20 22 23 25 25 23 23 23 24 24 24 24 23 22 20 19 18 17 16 16 17 16 16 16 17 17 17 18 18 18 18 18 18 17 17 16 16 15 14 13 13 12 12 12 11
18 20 21 22 23 25 25 28 29 26 26 27 27 28 26 27 26 26 25 23 22 21 20 19 20 19 19 19 18 19 19 19 20 21 20 20 20 20 19 19 18 18 17 16 15 15 15 14 13
20 22 23 25 27 27 27 31 32 29 29 29 29 30 30 30 30 29 28 27 26 26 25 24 23 23 22 22 21 21 21 21 22 22 22 22 21 22 21 21 20 20 19 19 18 18 17 16 15
22 23 23 25 28 29 29 32 34 34 32 33 33 33 34 33 32 32 30 30 29 29 29 28 27 25 26 25 25 24 24 24 24 23 22 23 22 23 22 22 22 22 22 21 20 20 19 18 17
23 25 25 27 30 32 33 34 36 39 37 36 36 37 38 37 36 35 33 33 32 32 32 32 31 29 29 29 29 28 28 27 26 25 24 24 24 24 23 24 24 24 24 24 23 22 21 20 19
25 26 28 30 35 36 37 37 39 42 41 40 40 41 41 40 40 39 37 36 36 35 35 34 34 34 33 32 31 32 32 31 29 28 27 27 27 26 26 26 27 26 26 26 24 23 23 23 21
26 29 31 34 37 38 38 38 39 41 42 42 42 43 43 41 41 41 39 38 38 37 37 36 36 36 36 35 34 34 35 34 32 31 30 30 29 29 28 28 29 28 28 28 26 26 25 25 24
26 30 32 33 35 36 37 37 38 39 42 43 42 42 42 40 40 40 39 39 38 38 37 37 37 37 37 37 36 36 35 35 35 34 33 33 32 31 31 30 30 31 31 29 27 26 25 25 24
27 29 31 31 33 33 33 33 34 35 40 40 39 39 39 39 38 37 37 36 36 36 37 37 37 37 37 37 37 36 36 36 35 35 36 36 36 35 34 32 31 31 32 29 28 27 26 26 25
26 28 30 32 32 31 28 28 31 34 38 39 37 36 36 36 36 35 35 34 34 35 35 36 37 37 37 37 37 37 37 36 36 37 37 37 38 37 35 35 34 32 31 29 28 29 28 27 26
27 29 30 30 28 26 25 25 30 33 36 37 37 35 35 34 33 33 33 33 33 33 34 35 36 37 37 37 38 38 37 36 37 38 38 39 38 39 38 35 34 32 29 28 26 27 28 27 26
27 28 27 23 19 19 21 23 28 31 33 35 35 35 34 33 32 32 33 33 33 33 34 35 36 36 37 37 38 37 37 36 37 38 39 39 40 40 38 35 34 31 29 28 27 26 25 25 24
25 24 22 18 14 13 16 20 23 26 27 29 30 30 28 29 30 31 32 32 32 32 33 34 34 35 35 35 35 35 35 35 36 37 36 37 38 37 35 34 32 28 27 27 27 27 26 24 23
23 21 19 15 11 11 12 14 17 19 21 23 24 25 25 24 26 27 28 28 29 29 29 30 30 30 30 31 32 32 32 32 32 32 32 33 32 32 32 29 27 26 26 26 26 25 24 23 23
23 21 17 13 10 8 11 13 14 15 17 17 17 18 19 20 20 22 24 24 25 25 24 25 25 25 26 26 27 27 27 27 26 26 27 27 29 29 26 24 25 25 25 23 22 22 21 21 22
23 21 17 13 11 9 9 10 11 11 11 11 11 12 12 13 15 17 18 19 20 20 19 19 19 19 19 19 20 20 20 21 22 23 23 23 23 21 19 20 20 21 21 20 19 19 20 21 22
22 21 18 15 13 12 12 13 13 12 11 10 8 8 8 9 11 11 11 11 12 11 11 12 12 11 11 11 11 12 14 15 15 15 16 15 15 16 16 16 17 17 17 17 18 19 20 21 22
Wind_Direction
87 87 90 91 89 75 60 55 48 37 30 27 23 13 11 26 41 104 79 123 111 99 90 86 83 81 79 78 75 73 71 69 67 65 62 59 60 61 59 60 78 117 178 200 205 213 220 226 229
96 97 91 96 77 69 62 57 53 43 32 27 28 23 24 39 56 82 115 132 126 112 98 90 86 81 79 76 73 71 69 67 64 61 58 54 51 50 49 46 42 39 252 237 229 228 232 236 235
105 106 98 104 76 69 63 56 50 44 34 27 28 32 34 46 59 80 119 136 136 128 111 97 91 84 80 76 72 69 67 65 62 59 55 51 45 40 36 32 22 7 335 290 266 252 252 245 238
118 110 110 90 82 72 67 61 52 46 39 33 34 40 44 53 64 79 112 137 143 140 127 111 99 89 83 76 71 67 63 61 59 56 53 49 43 35 28 23 16 7 356 333 305 281 273 263 251
137 137 100 87 87 79 71 62 51 49 47 35 35 47 48 58 68 82 103 131 143 149 145 136 121 103 87 75 69 65 60 55 51 49 47 42 36 30 22 14 12 6 357 344 332 307 284 269 262
166 129 100 112 113 104 96 89 54 37 36 25 16 40 42 54 66 80 97 120 137 151 161 173 181 197 187 59 51 50 48 43 36 33 32 31 26 19 10 2 358 358 354 345 333 321 298 275 262
193 144 146 181 210 215 224 232 238 247 299 325 330 2 23 38 52 66 86 105 121 143 168 202 233 249 258 272 290 309 331 347 353 355 355 358 3 358 349 345 344 348 351 345 336 321 307 284 269
199 195 185 225 236 229 237 241 248 254 255 268 281 301 313 342 0 9 18 68 109 128 219 275 286 282 278 278 280 283 287 291 295 299 306 313 322 325 322 326 330 334 340 339 331 320 308 294 282
212 216 216 234 245 240 242 243 244 251 255 257 259 271 281 298 307 310 306 299 293 285 285 291 295 295 291 287 285 284 283 283 281 281 283 286 291 297 302 306 311 317 320 324 322 315 303 293 285
221 224 232 226 247 244 246 247 247 250 254 257 258 262 272 282 287 290 289 287 288 287 287 292 295 296 296 293 291 289 287 284 280 277 275 273 275 279 286 291 295 301 305 307 309 308 300 293 287
229 233 240 243 250 249 247 249 249 252 256 260 264 264 267 273 278 280 280 280 283 285 285 286 290 294 297 298 297 294 291 287 282 277 273 269 268 270 276 281 285 288 291 294 297 299 298 294 290
239 243 244 249 252 250 251 253 254 255 260 264 266 268 270 273 274 277 278 279 280 281 283 286 287 290 295 297 297 296 293 290 285 279 275 270 266 267 270 273 277 279 282 286 288 292 297 295 292
248 251 253 255 255 254 255 256 257 258 260 262 265 268 271 273 275 276 277 278 280 281 282 286 287 288 291 294 295 294 293 290 287 282 278 274 270 268 267 268 269 272 275 278 281 284 291 293 291
261 264 263 262 261 260 259 261 260 259 261 263 265 269 272 274 276 276 276 276 277 278 281 283 284 285 288 291 291 291 290 289 287 283 279 276 273 270 267 265 266 266 267 269 275 278 283 289 289
265 267 267 267 265 265 265 264 262 263 263 264 266 268 271 274 275 275 277 278 278 278 278 278 281 283 287 289 289 288 288 288 288 284 280 276 274 271 269 266 264 263 263 265 269 272 276 280 282
267 269 272 273 271 269 268 268 268 269 267 267 268 269 269 271 272 272 274 276 277 279 279 278 280 282 284 285 285 285 285 287 287 286 283 279 275 272 270 267 264 262 262 262 265 269 271 273 274
271 273 274 275 276 273 270 272 274 272 271 271 270 270 269 268 269 271 273 274 275 277 278 279 279 279 281 283 282 282 282 284 285 285 283 280 277 274 272 269 265 261 261 261 264 266 267 269 270
273 274 272 270 274 274 277 279 278 275 274 272 272 270 269 268 269 270 271 272 273 274 275 277 278 278 278 280 280 280 282 282 283 283 282 280 278 277 274 270 267 263 259 259 261 262 264 267 269
278 278 275 273 273 275 278 279 278 278 276 274 272 271 270 270 270 270 269 270 270 272 273 274 276 277 277 277 276 277 279 279 281 282 281 282 279 277 276 273 270 267 259 256 257 259 262 263 267
281 280 277 275 278 280 281 281 279 278 277 275 274 273 272 271 269 269 268 268 269 270 270 272 273 274 274 275 274 272 275 277 277 279 281 279 277 274 273 271 268 267 263 256 255 255 258 260 263
284 281 281 282 283 282 282 279 278 278 276 276 274 273 273 272 271 270 268 267 267 267 267 268 269 270 271 273 274 273 273 274 276 277 278 279 279 279 276 275 273 268 264 258 255 255 256 258 260
292 290 291 290 287 284 281 277 275 273 274 274 273 273 271 270 269 268 267 265 264 263 264 265 266 267 269 270 272 273 273 273 274 276 277 278 278 281 280 277 275 272 266 259 254 253 255 256 258
301 297 295 294 291 286 282 275 269 267 267 270 271 270 269 267 266 266 264 263 261 261 261 262 263 265 266 267 269 269 271 272 273 275 275 277 279 280 282 280 276 275 267 257 254 253 255 255 256
312 306 302 300 296 287 281 271 264 261 261 264 265 267 269 267 263 262 261 260 260 260 261 261 263 264 265 266 267 268 269 271 272 272 271 274 276 276 279 280 277 273 266 259 254 252 253 253 256
320 317 314 310 299 283 276 267 264 263 263 266 266 267 269 266 263 262 260 258 258 259 259 261 262 264 265 265 266 268 270 270 270 271 271 272 272 273 274 275 272 269 263 257 254 253 251 253 254
331 329 327 320 307 288 277 276 274 273 271 269 270 273 273 270 264 261 260 258 258 259 260 262 263 263 264 265 265 267 268 268 269 269 269 270 272 270 271 272 267 263 258 256 254 251 252 252 251
340 341 339 334 315 300 292 287 283 283 285 279 278 279 278 273 265 262 261 260 261 263 264 265 265 265 265 265 265 265 266 267 268 267 268 267 269 270 267 265 260 257 257 253 250 248 250 250 253
354 353 353 354 347 329 311 306 307 302 302 295 286 283 282 276 270 267 265 263 264 266 266 265 266 266 266 266 265 265 266 266 267 268 267 267 266 265 260 256 256 256 250 242 240 244 248 251 255
4 7 8 6 7 5 348 337 335 332 325 316 304 297 291 280 275 272 270 270 269 268 267 267 268 268 267 266 266 263 261 263 265 266 263 264 263 259 256 251 250 247 239 236 240 245 250 253 256
11 15 19 20 21 21 15 11 7 5 5 357 341 335 317 296 285 278 279 277 275 268 265 266 267 271 271 269 266 263 263 265 264 263 260 257 253 249 245 240 241 241 239 240 245 250 254 256 258
Height
5904 5904 5904 5905 5906 5905 5904 5904 5904 5904 5904 5904 5904 5904 5903 5904 5905 5907 5905 5905 5905 5906 5906 5906 5905 5905 5904 5904 5903 5902 5902 5901 5900 5900 5900 5899 5899 5898 5898 5898 5898 5898 5899 5899 5900 5900 5901 5902 5903
5905 5906 5906 5907 5906 5906 5906 5906 5905 5905 5906 5905 5905 5905 5905 5904 5904 5905 5905 5905 5906 5906 5907 5907 5906 5906 5906 5905 5905 5904 5903 5902 5902 5901 5901 5901 5900 5900 5899 5899 5899 5899 5899 5899 5900 5900 5901 5901 5902
5906 5907 5908 5908 5906 5907 5908 5907 5907 5907 5907 5907 5906 5906 5906 5906 5905 5905 5905 5906 5907 5907 5907 5907 5907 5907 5907 5906 5906 5905 5905 5904 5903 5903 5902 5902 5901 5901 5901 5900 5900 5900 5900 5900 5900 5900 5900 5900 5901
5908 5908 5909 5909 5908 5909 5909 5909 5909 5908 5908 5908 5908 5908 5907 5907 5906 5906 5906 5906 5907 5908 5908 5908 5908 5908 5908 5907 5907 5906 5906 5905 5905 5904 5904 5903 5903 5902 5902 5901 5900 5900 5900 5900 5900 5900 5900 5900 5900
5908 5909 5910 5910 5910 5910 5910 5910 5910 5910 5910 5909 5909 5909 5908 5908 5907 5907 5907 5907 5907 5908 5908 5908 5909 5909 5908 5908 5908 5907 5907 5907 5906 5905 5905 5904 5904 5903 5902 5902 5901 5901 5900 5900 5900 5900 5899 5899 5899
5909 5910 5910 5910 5911 5911 5911 5911 5911 5911 5910 5910 5910 5910 5909 5909 5908 5908 5908 5908 5908 5908 5908 5908 5908 5909 5908 5908 5908 5908 5907 5907 5907 5906 5905 5905 5904 5904 5903 5902 5902 5901 5901 5900 5900 5899 5899 5899 5899
5911 5911 5910 5911 5911 5912 5912 5912 5911 5911 5911 5911 5910 5911 5910 5910 5909 5909 5908 5908 5908 5908 5908 5908 5908 5908 5908 5908 5908 5908 5907 5907 5907 5906 5906 5905 5905 5904 5903 5903 5902 5901 5901 5900 5900 5899 5899 5898 5898
5909 5911 5911 5911 5911 5912 5912 5912 5912 5912 5912 5911 5911 5911 5911 5910 5910 5909 5909 5908 5908 5908 5908 5908 5908 5908 5908 5908 5907 5907 5907 5907 5906 5906 5905 5905 5905 5904 5903 5903 5902 5901 5901 5900 5900 5899 5899 5898 5898
5909 5911 5910 5910 5910 5911 5911 5911 5912 5911 5911 5911 5910 5910 5910 5910 5910 5909 5909 5909 5908 5908 5908 5908 5908 5908 5907 5907 5906 5906 5906 5906 5905 5905 5905 5904 5904 5903 5903 5902 5902 5901 5901 5900 5899 5899 5898 5898 5897
5908 5909 5908 5908 5909 5910 5910 5910 5910 5910 5910 5909 5909 5909 5909 5909 5909 5909 5908 5908 5908 5907 5907 5907 5907 5907 5906 5906 5905 5905 5904 5904 5904 5904 5903 5903 5903 5902 5902 5901 5901 5900 5900 5899 5899 5898 5898 5897 5897
5906 5907 5907 5906 5907 5908 5908 5908 5908 5908 5908 5908 5908 5907 5908 5908 5907 5907 5907 5907 5906 5906 5906 5906 5905 5905 5904 5904 5903 5903 5902 5902 5902 5902 5901 5901 5901 5901 5900 5900 5899 5899 5899 5898 5898 5897 5897 5897 5896
5904 5905 5905 5906 5906 5906 5906 5906 5906 5906 5907 5906 5905 5905 5905 5905 5905 5905 5905 5904 5904 5904 5903 5903 5903 5903 5902 5902 5901 5901 5900 5900 5899 5899 5899 5898 5898 5898 5898 5898 5897 5897 5897 5897 5897 5896 5896 5896 5896
5901 5902 5903 5904 5904 5904 5904 5903 5903 5904 5904 5904 5903 5902 5902 5902 5902 5902 5902 5902 5901 5901 5901 5900 5900 5900 5899 5899 5898 5898 5897 5896 5896 5896 5895 5895 5895 5895 5895 5895 5895 5895 5895 5895 5895 5895 5894 5894 5894
5899 5900 5900 5901 5901 5901 5900 5900 5900 5901 5901 5900 5900 5899 5898 5898 5898 5897 5898 5898 5898 5898 5898 5897 5896 5896 5895 5895 5895 5894 5894 5893 5893 5892 5892 5892 5892 5892 5892 5892 5892 5892 5892 5892 5892 5892 5892 5892 5892
5897 5897 5897 5897 5897 5896 5897 5895 5894 5896 5897 5896 5895 5895 5895 5894 5893 5893 5892 5893 5893 5893 5894 5893 5893 5892 5891 5891 5890 5890 5889 5889 5889 5888 5888 5888 5888 5888 5888 5888 5888 5888 5888 5888 5889 5889 5889 5889 5889
5894 5894 5893 5892 5892 5891 5893 5889 5889 5890 5891 5890 5890 5889 5890 5889 5888 5887 5888 5888 5888 5888 5888 5888 5888 5888 5887 5887 5886 5885 5885 5885 5885 5884 5884 5884 5884 5883 5884 5884 5884 5884 5884 5885 5885 5885 5885 5885 5886
5890 5889 5889 5888 5886 5885 5885 5883 5882 5882 5884 5883 5883 5883 5882 5883 5882 5882 5883 5883 5883 5882 5882 5882 5883 5883 5882 5881 5881 5881 5880 5880 5880 5880 5879 5879 5879 5879 5879 5879 5879 5880 5880 5881 5881 5881 5881 5881 5881
5886 5885 5884 5882 5879 5878 5878 5876 5874 5873 5875 5875 5875 5874 5874 5874 5875 5876 5876 5876 5876 5876 5876 5876 5876 5877 5877 5876 5876 5875 5875 5875 5875 5875 5874 5874 5874 5874 5874 5874 5874 5875 5875 5876 5876 5876 5877 5877 5877
5880 5879 5878 5876 5873 5872 5871 5870 5867 5864 5865 5866 5865 5865 5865 5866 5867 5867 5869 5869 5869 5869 5869 5869 5869 5869 5870 5870 5869 5868 5869 5868 5869 5869 5868 5868 5868 5868 5869 5869 5869 5869 5869 5870 5871 5871 5872 5872 5873
5874 5872 5871 5869 5866 5865 5864 5862 5859 5856 5855 5855 5855 5854 5855 5856 5856 5857 5859 5860 5860 5861 5861 5861 5861 5861 5861 5862 5862 5861 5861 5861 5861 5862 5862 5862 5861 5861 5862 5862 5862 5863 5863 5864 5865 5865 5866 5867 5867
5868 5865 5862 5861 5859 5857 5855 5854 5850 5846 5844 5844 5844 5844 5845 5846 5846 5847 5848 5849 5850 5851 5852 5852 5852 5852 5853 5853 5853 5853 5853 5853 5853 5854 5854 5854 5854 5854 5854 5855 5855 5856 5856 5857 5858 5859 5860 5861 5862
5861 5857 5855 5852 5850 5848 5847 5844 5841 5836 5834 5834 5834 5834 5834 5834 5835 5836 5838 5839 5840 5841 5842 5843 5843 5843 5844 5844 5844 5844 5844 5845 5846 5846 5846 5846 5846 5846 5846 5847 5847 5848 5849 5849 5851 5852 5853 5855 5856
5853 5850 5846 5843 5839 5838 5837 5835 5832 5829 5826 5825 5825 5824 5823 5824 5825 5826 5828 5829 5830 5831 5832 5833 5833 5834 5835 5835 5835 5836 5836 5836 5837 5838 5838 5838 5838 5839 5839 5839 5840 5841 5841 5842 5843 5845 5846 5848 5849
5846 5841 5837 5833 5830 5828 5828 5827 5822 5820 5818 5817 5815 5814 5813 5814 5815 5817 5818 5820 5821 5821 5822 5823 5824 5825 5825 5826 5826 5827 5828 5829 5829 5829 5829 5830 5830 5830 5831 5831 5832 5833 5833 5834 5835 5837 5839 5841 5843
5839 5834 5829 5825 5823 5822 5820 5817 5814 5811 5810 5809 5807 5806 5806 5806 5807 5809 5810 5811 5811 5812 5813 5813 5814 5815 5816 5816 5817 5818 5819 5820 5821 5821 5821 5821 5822 5822 5822 5823 5824 5825 5826 5827 5829 5830 5832 5834 5836
5833 5827 5823 5819 5816 5815 5812 5810 5808 5805 5803 5801 5800 5799 5798 5798 5800 5801 5802 5802 5803 5804 5804 5805 5805 5806 5806 5807 5808 5809 5810 5811 5812 5812 5813 5814 5814 5814 5814 5815 5816 5817 5818 5819 5822 5824 5825 5828 5829
5830 5823 5818 5815 5812 5810 5808 5806 5803 5801 5799 5796 5795 5794 5793 5793 5793 5794 5794 5795 5796 5796 5797 5797 5797 5798 5799 5799 5800 5801 5802 5803 5803 5804 5804 5805 5806 5806 5806 5807 5809 5810 5811 5813 5814 5816 5819 5821 5823
5827 5821 5816 5812 5810 5808 5806 5803 5800 5797 5795 5793 5791 5790 5788 5788 5788 5788 5789 5789 5790 5790 5790 5791 5791 5791 5792 5793 5793 5794 5795 5795 5796 5796 5797 5798 5798 5799 5799 5801 5802 5803 5804 5806 5808 5811 5813 5815 5817
5827 5821 5816 5812 5809 5807 5805 5805 5799 5796 5794 5791 5789 5788 5786 5785 5785 5785 5785 5785 5785 5785 5786 5786 5786 5786 5787 5787 5788 5788 5789 5790 5790 5790 5791 5792 5792 5792 5794 5795 5797 5798 5799 5801 5804 5806 5808 5810 5811
5827 5822 5817 5814 5811 5808 5806 5807 5800 5797 5794 5791 5789 5787 5786 5784 5783 5782 5782 5782 5782 5782 5783 5783 5783 5783 5783 5783 5784 5784 5785 5785 5785 5786 5787 5787 5788 5789 5790 5791 5792 5794 5796 5798 5800 5801 5803 5805 5806